Regional Weather Roundup
Issued by NWS

Current Version | Previous Version | Text Only | Print | Product List | Glossary On
Versions: 1 2 3 4 5 6 7 8 9 10 11 12 13 14 15 16 17 18 19 20 21 22 23 24 25 26 27 28 29 30 31 32 33 34 35 36 37 38 39 40 41 42 43 44 45 46 47 48 49 50
000
ASUS42 KFFC 280610
RWRGA
WEATHER ROUNDUP FOR GEORGIA
NATIONAL WEATHER SERVICE PEACHTREE CITY GA
200 AM EDT FRI AUG 28 2015

NOTE: "FAIR" INDICATES FEW OR NO CLOUDS BELOW 12,000 FEET WITH NO
SIGNIFICANT WEATHER AND/OR OBSTRUCTIONS TO VISIBILITY.

* = USE WITH CAUTION. THE STATIONS MARKED WITH AN ASTERISK MAY NOT
REPORT WEATHER SUCH AS PRECIPITATION, FOG, OR THUNDER AND ARE NOT
QUALITY CONTROLLED BY NWS.

THE REMARK "TC" DENOTES TEMPERATURE READING IN DEGREES CELSIUS.

GAZ001>058-280700-
NORTH GEORGIA

CITY           SKY/WX    TMP DP  RH WIND       PRES   REMARKS
ATLANTA        FAIR      71  65  81 E8        30.06S
6HR MIN TEMP:  71; 6HR MAX TEMP:  79;

ATHENS         FAIR      70  66  87 E7        30.07S
6HR MIN TEMP:  70; 6HR MAX TEMP:  78;

CHAMBLEE       FAIR      72  66  81 VRB3      30.07S
6HR MIN TEMP:  70; 6HR MAX TEMP:  79;

PEACHTREE CITY FAIR      66  65  96 CALM      30.06S FOG
6HR MIN TEMP:  65; 6HR MAX TEMP:  79;

ROME           FAIR      67  65  93 N3        30.05F
6HR MIN TEMP:  67; 6HR MAX TEMP:  80;

WEST ATLANTA   FAIR      69  64  84 NE3       30.06S
6HR MIN TEMP:  67; 6HR MAX TEMP:  81;

GAINESVILLE    FAIR      70  62  76 NE7       30.11F
6HR MIN TEMP:  69; 6HR MAX TEMP:  76;

CARTERSVILLE   FAIR      64  64 100 CALM      30.06F
6HR MIN TEMP:  64; 6HR MAX TEMP:  79;



CITY           SKY/WX    TMP DP  RH WIND       PRES   REMARKS
DALTON*        FAIR      66  66 100 CALM      30.07S
MARIETTA       FAIR      70  66  88 NE2       30.07S
BLAIRSVILLE*     N/A     60  53  76 CALM      30.14S HAZE
$$

GAZ059>098-102>109-280700-
CENTRAL GEORGIA

CITY           SKY/WX    TMP DP  RH WIND       PRES   REMARKS
AUGUSTA-BUSH   FAIR      73  70  90 E3        30.06F
6HR MIN TEMP:  70; 6HR MAX TEMP:  80;

AUGUSTA-DANIEL FAIR      76  70  82 E8        30.08F
6HR MIN TEMP:  76; 6HR MAX TEMP:  84;

COLUMBUS       FAIR      75  66  73 E9        30.01F
6HR MIN TEMP:  75; 6HR MAX TEMP:  84;

MACON          FAIR      71  67  87 E5        30.03F
6HR MIN TEMP:  71; 6HR MAX TEMP:  81;

ROBINS AFB     MOCLDY    73  70  91 SE1       30.03S


CITY           SKY/WX    TMP DP  RH WIND       PRES   REMARKS
LAGRANGE*      FAIR      75  72  89 E3        30.03F
SYLVANIA*      FAIR      74  74  98 E5        30.06F
MILLEDGEVILLE* FAIR      75  68  78 E5        30.05S
$$

GAZ099>101-110>166-280700-
SOUTH GEORGIA

CITY           SKY/WX    TMP DP  RH WIND       PRES   REMARKS
SAVANNAH       FAIR      75  72  90 NE7       30.04S
6HR MIN TEMP:  75; 6HR MAX TEMP:  78;

VALDOSTA       FAIR      73  67  81 NE3       30.00S
6HR MIN TEMP:  73; 6HR MAX TEMP:  85;

ALMA           FAIR      73  71  93 CALM      30.02S
6HR MIN TEMP:  73; 6HR MAX TEMP:  81;

ST SIMONS      FAIR      81  73  76 E8        30.01R
6HR MIN TEMP:  79; 6HR MAX TEMP:  82;

FT STEWART     FAIR      74  72  92 NE6       30.00F
ALBANY         FAIR      76  69  79 E7        30.01S
HUNTER AFB     FAIR      75  74  98 N2        30.01S
MOODY AFB      FAIR      72  67  83 CALM      30.00S
BRUNSWICK      FAIR      73  72  94 CALM      30.01S


CITY           SKY/WX    TMP DP  RH WIND       PRES   REMARKS
BAINBRIDGE*    FAIR      72  64  78 NE5       29.97F
MOULTRIE*      FAIR      77  70  78 E3        30.01R
VIDALIA*       MOCLDY    73  72  94 NE3       30.04F
WAYCROSS*      FAIR      76  75  99 CALM      30.01S
DOUGLAS*       MOCLDY    75  72  88 NE5       30.03S
$$


USA.gov is the U.S. government's official web portal to all federal, state and local government web resources and services.